SCP
0 0 0 -0 -0 -0 -0 -0 0 0 -0 -0 -0 0 0 0 0 0 0 0 0 0 0 0 -0 0 0 -0 -0 0 -0 -0 0
0 0 0 0 -0 -0 -0 -0 -0 0 0 0 0 0 0 0 0 0 0 0 0 0 0 0 -0 0 -0 -0 -0 -0 -0 -0 -0
0 0 0 0 0 -0 -0 -0 0 0 0 0 0 0 0 0 0 0 0 0 0 0 -0 -0 -0 -0 -0 -0 -0 0 -0 -0 -0
0 0 0 0 0 0 0 0 0 0 0 0 0 0 0 0 0 0 0 0 0 0 -0 0 0 -0 0 0 0 0 0 0 -0
0 0 0 0 0 0 0 0 0 0 0 0 0 0 0 0 0 0 0 0 0 0 0 0 0 0 0 0 0 0 0 0 0
0 0 0 0 0 0 0 0 0 0 0 0 0 0 0 0 0 0 0 0 0 0 0 0 0 0 0 0 -0 0 0 0 0
0 0 0 0 0 0 0 0 0 0 0 0 0 0 0 0 0 0 0 0 0 0 0 0 0 0 0 0 -0 -0 -0 0 0
0 0 0 0 0 0 0 0 0 0 0 0 0 0 0 0 0 0 0 0 0 0 0 0 0 0 -0 0 -0 -0 -0 0 0
-0 -0 0 0 0 0 0 0 0 0 1 0 0 0 0 0 1 0 0 0 0 0 0 0 0 0 0 0 0 -0 -0 -0 -0
0 0 -0 0 0 0 0 0 0 0 1 1 1 0 0 0 0 0 0 0 0 0 0 0 0 0 0 -0 -0 -0 -0 -0 -0
0 0 0 -0 0 0 0 0 0 0 0 1 0 0 0 0 0 0 1 1 0 0 0 0 0 0 0 -0 -0 -0 -0 -0 -0
0 0 0 0 0 0 0 0 0 0 0 1 1 1 1 1 1 1 1 1 0 0 0 0 0 0 0 -0 -0 -0 -0 0 0
0 0 0 1 0 0 0 0 0 0 0 0 0 1 1 1 1 1 1 1 1 1 1 0 1 0 0 -0 -0 -0 -0 -0 -0
0 0 0 1 1 0 0 0 0 0 0 0 0 0 1 1 2 1 1 1 1 1 1 1 1 1 1 0 0 0 -0 -0 0
0 0 0 0 2 2 1 0 0 0 0 0 0 0 1 2 2 2 2 2 2 2 2 1 1 1 1 1 1 0 0 0 0
0 0 0 0 0 2 2 3 2 2 1 0 0 0 0 1 2 2 2 2 2 3 3 2 2 2 2 2 2 2 1 0 0
0 0 0 0 0 0 0 2 3 3 3 2 1 1 1 1 1 2 2 2 3 3 3 3 3 3 3 3 3 3 3 1 0
0 0 0 0 0 0 0 0 1 2 2 2 2 3 3 4 2 1 2 3 2 3 4 3 3 3 4 5 4 4 4 4 3
0 0 0 0 0 0 0 0 0 0 2 1 1 2 2 1 2 3 1 0 0 0 0 0 0 0 1 4 2 3 3 2 2
0 0 0 0 0 0 0 0 0 0 0 1 1 1 1 1 1 2 1 1 0 0 0 0 0 0 0 0 2 1 1 0 0
Wind_Speed_500mb
70 68 80 93 99 102 106 108 106 100 100 102 97 89 82 78 79 78 67 57 50 52 56 56 45 38 34 29 22 21 26 27 27
60 74 79 83 91 100 108 110 107 106 103 99 96 93 88 84 79 83 77 63 54 50 50 50 47 40 37 34 30 29 28 30 29
56 73 77 83 78 91 99 109 111 107 103 104 100 91 89 87 82 82 81 71 62 55 51 52 51 46 41 39 37 35 36 34 33
63 71 84 96 96 98 93 93 103 105 106 109 108 104 93 90 88 86 86 78 67 59 54 52 55 52 45 43 42 40 40 40 36
68 79 91 95 100 95 87 92 96 99 105 109 108 104 99 92 90 87 88 83 73 63 58 57 56 54 52 52 50 46 44 43 41
67 75 83 83 67 79 97 100 97 99 101 105 102 101 99 97 96 92 87 83 76 69 63 58 59 60 60 58 55 54 52 49 47
41 53 70 76 77 85 93 105 104 100 98 97 97 98 96 97 96 90 85 79 78 74 68 61 63 66 64 62 61 59 56 53 51
34 39 51 66 79 90 97 94 98 97 94 89 89 91 92 92 91 89 86 79 75 73 70 68 63 65 69 70 68 67 63 64 62
29 45 56 70 79 87 97 101 110 106 97 90 84 85 85 81 87 89 86 77 74 76 74 69 67 68 71 75 75 72 70 69 67
33 40 50 59 85 94 100 108 107 113 105 88 79 76 76 80 82 83 82 75 75 75 74 69 69 69 70 74 77 76 74 73 76
31 32 34 48 72 95 105 102 99 98 97 83 71 78 81 76 74 72 75 76 76 74 73 71 68 67 68 69 71 71 74 75 78
34 25 20 39 68 81 82 92 93 94 88 84 78 79 77 75 71 71 72 74 74 71 70 69 68 66 66 66 64 63 64 67 75
39 28 4 31 55 65 67 75 81 87 85 82 78 77 73 67 64 65 66 64 64 63 64 62 62 63 63 59 57 54 53 55 62
51 43 28 26 43 55 62 65 70 73 77 80 75 68 63 60 58 57 55 54 55 56 54 53 54 52 50 50 47 45 44 46 54
71 68 53 47 37 45 54 53 56 57 58 60 57 52 50 46 46 48 50 51 49 50 51 52 53 52 52 53 52 48 46 46 50
70 76 74 68 66 43 40 53 47 45 50 50 47 45 41 38 40 43 45 45 45 47 49 54 55 56 54 54 50 47 43 39 40
61 65 68 64 65 69 70 58 45 38 31 29 33 35 36 38 43 42 44 44 45 46 53 53 52 53 53 50 46 44 40 36 34
54 55 56 57 59 61 53 45 46 45 38 30 33 32 28 24 22 24 29 37 43 48 47 48 47 48 50 50 48 42 33 30 33
39 44 45 46 48 49 49 40 29 28 28 26 24 22 20 19 18 20 22 26 31 37 41 45 44 45 49 49 43 37 32 32 33
25 29 34 36 35 37 36 37 34 22 14 11 10 8 8 11 18 23 26 30 33 37 40 41 44 45 45 47 39 33 31 29 26
Wind_Direction_500mb
211 213 210 210 211 215 218 220 219 220 221 222 223 224 228 231 233 233 234 235 239 238 238 238 236 229 228 230 234 240 243 242 241
206 207 211 213 210 218 218 221 220 220 220 219 223 225 226 230 234 234 234 236 237 240 240 234 230 228 226 229 235 240 247 247 244
206 206 208 213 209 215 221 221 223 225 224 223 222 224 227 230 233 235 235 236 236 239 237 234 228 228 225 229 233 238 244 249 244
206 204 208 217 214 219 219 220 222 226 228 227 227 227 228 231 234 234 235 237 237 239 238 235 230 228 226 230 234 237 242 244 242
224 221 221 218 218 213 214 219 219 224 227 229 229 229 230 232 234 234 235 238 238 238 239 236 234 232 231 230 230 232 238 236 240
222 227 228 220 211 209 215 222 222 224 226 229 231 230 230 231 233 233 234 237 239 239 238 236 235 234 232 229 228 228 232 237 243
245 240 234 225 215 209 211 220 223 223 224 227 228 230 232 232 232 233 234 237 240 240 240 238 236 235 234 233 231 231 233 234 238
273 251 236 225 220 212 209 211 218 222 224 224 226 228 231 234 235 235 236 237 240 241 240 239 238 238 236 236 235 233 233 234 238
288 274 254 234 229 220 206 208 217 223 224 222 224 227 231 233 235 235 236 236 238 240 240 238 238 237 237 238 238 238 237 238 241
323 288 275 252 229 222 212 210 216 223 225 219 222 228 230 230 231 233 233 234 237 238 237 237 237 238 238 239 240 241 242 243 245
341 313 285 248 222 213 216 213 215 217 219 217 217 220 223 225 226 226 230 234 236 237 237 237 239 240 242 243 243 243 244 246 247
9 348 282 211 205 199 196 202 209 214 216 217 217 222 224 224 228 231 232 235 236 237 238 239 240 243 245 246 247 248 248 247 249
28 33 49 187 193 192 195 200 207 211 214 216 221 222 223 228 230 231 232 234 236 239 241 244 246 248 249 251 251 251 250 250 252
47 51 73 126 170 187 197 205 209 211 216 221 225 225 227 231 234 234 236 237 238 239 241 243 245 248 251 253 253 251 250 248 251
44 55 77 93 129 170 183 197 208 212 218 225 229 233 236 236 238 238 237 238 242 245 246 248 252 255 257 260 261 259 257 255 256
44 50 61 78 87 108 161 184 196 201 209 216 219 224 227 227 233 237 241 239 241 245 247 249 250 254 258 260 262 264 263 260 257
42 44 48 61 75 82 89 104 130 147 165 188 200 209 218 216 219 225 227 232 234 235 238 239 245 251 255 259 263 266 266 266 265
34 35 36 43 52 58 68 84 96 106 113 131 144 149 155 165 184 203 218 227 229 237 240 239 241 249 256 260 263 270 276 261 256
16 16 17 22 33 42 49 55 69 90 105 117 130 148 164 180 196 209 218 228 233 231 232 238 243 249 254 258 258 258 252 250 253
351 352 355 358 2 4 13 32 33 37 52 73 101 118 177 220 233 235 238 239 242 244 244 247 249 250 250 254 254 248 246 246 253
Wind_Speed_850mb
70 68 80 93 99 102 106 108 106 100 100 102 97 89 82 78 79 78 67 57 50 52 56 56 45 38 34 29 22 21 26 27 27
60 74 79 83 91 100 108 110 107 106 103 99 96 93 88 84 79 83 77 63 54 50 50 50 47 40 37 34 30 29 28 30 29
56 73 77 83 78 91 99 109 111 107 103 104 100 91 89 87 82 82 81 71 62 55 51 52 51 46 41 39 37 35 36 34 33
63 71 84 96 96 98 93 93 103 105 106 109 108 104 93 90 88 86 86 78 67 59 54 52 55 52 45 43 42 40 40 40 36
68 79 91 95 100 95 87 92 96 99 105 109 108 104 99 92 90 87 88 83 73 63 58 57 56 54 52 52 50 46 44 43 41
67 75 83 83 67 79 97 100 97 99 101 105 102 101 99 97 96 92 87 83 76 69 63 58 59 60 60 58 55 54 52 49 47
41 53 70 76 77 85 93 105 104 100 98 97 97 98 96 97 96 90 85 79 78 74 68 61 63 66 64 62 61 59 56 53 51
34 39 51 66 79 90 97 94 98 97 94 89 89 91 92 92 91 89 86 79 75 73 70 68 63 65 69 70 68 67 63 64 62
29 45 56 70 79 87 97 101 110 106 97 90 84 85 85 81 87 89 86 77 74 76 74 69 67 68 71 75 75 72 70 69 67
33 40 50 59 85 94 100 108 107 113 105 88 79 76 76 80 82 83 82 75 75 75 74 69 69 69 70 74 77 76 74 73 76
31 32 34 48 72 95 105 102 99 98 97 83 71 78 81 76 74 72 75 76 76 74 73 71 68 67 68 69 71 71 74 75 78
34 25 20 39 68 81 82 92 93 94 88 84 78 79 77 75 71 71 72 74 74 71 70 69 68 66 66 66 64 63 64 67 75
39 28 4 31 55 65 67 75 81 87 85 82 78 77 73 67 64 65 66 64 64 63 64 62 62 63 63 59 57 54 53 55 62
51 43 28 26 43 55 62 65 70 73 77 80 75 68 63 60 58 57 55 54 55 56 54 53 54 52 50 50 47 45 44 46 54
71 68 53 47 37 45 54 53 56 57 58 60 57 52 50 46 46 48 50 51 49 50 51 52 53 52 52 53 52 48 46 46 50
70 76 74 68 66 43 40 53 47 45 50 50 47 45 41 38 40 43 45 45 45 47 49 54 55 56 54 54 50 47 43 39 40
61 65 68 64 65 69 70 58 45 38 31 29 33 35 36 38 43 42 44 44 45 46 53 53 52 53 53 50 46 44 40 36 34
54 55 56 57 59 61 53 45 46 45 38 30 33 32 28 24 22 24 29 37 43 48 47 48 47 48 50 50 48 42 33 30 33
39 44 45 46 48 49 49 40 29 28 28 26 24 22 20 19 18 20 22 26 31 37 41 45 44 45 49 49 43 37 32 32 33
25 29 34 36 35 37 36 37 34 22 14 11 10 8 8 11 18 23 26 30 33 37 40 41 44 45 45 47 39 33 31 29 26
Wind_Direction_850mb
211 213 210 210 211 215 218 220 219 220 221 222 223 224 228 231 233 233 234 235 239 238 238 238 236 229 228 230 234 240 243 242 241
206 207 211 213 210 218 218 221 220 220 220 219 223 225 226 230 234 234 234 236 237 240 240 234 230 228 226 229 235 240 247 247 244
206 206 208 213 209 215 221 221 223 225 224 223 222 224 227 230 233 235 235 236 236 239 237 234 228 228 225 229 233 238 244 249 244
206 204 208 217 214 219 219 220 222 226 228 227 227 227 228 231 234 234 235 237 237 239 238 235 230 228 226 230 234 237 242 244 242
224 221 221 218 218 213 214 219 219 224 227 229 229 229 230 232 234 234 235 238 238 238 239 236 234 232 231 230 230 232 238 236 240
222 227 228 220 211 209 215 222 222 224 226 229 231 230 230 231 233 233 234 237 239 239 238 236 235 234 232 229 228 228 232 237 243
245 240 234 225 215 209 211 220 223 223 224 227 228 230 232 232 232 233 234 237 240 240 240 238 236 235 234 233 231 231 233 234 238
273 251 236 225 220 212 209 211 218 222 224 224 226 228 231 234 235 235 236 237 240 241 240 239 238 238 236 236 235 233 233 234 238
288 274 254 234 229 220 206 208 217 223 224 222 224 227 231 233 235 235 236 236 238 240 240 238 238 237 237 238 238 238 237 238 241
323 288 275 252 229 222 212 210 216 223 225 219 222 228 230 230 231 233 233 234 237 238 237 237 237 238 238 239 240 241 242 243 245
341 313 285 248 222 213 216 213 215 217 219 217 217 220 223 225 226 226 230 234 236 237 237 237 239 240 242 243 243 243 244 246 247
9 348 282 211 205 199 196 202 209 214 216 217 217 222 224 224 228 231 232 235 236 237 238 239 240 243 245 246 247 248 248 247 249
28 33 49 187 193 192 195 200 207 211 214 216 221 222 223 228 230 231 232 234 236 239 241 244 246 248 249 251 251 251 250 250 252
47 51 73 126 170 187 197 205 209 211 216 221 225 225 227 231 234 234 236 237 238 239 241 243 245 248 251 253 253 251 250 248 251
44 55 77 93 129 170 183 197 208 212 218 225 229 233 236 236 238 238 237 238 242 245 246 248 252 255 257 260 261 259 257 255 256
44 50 61 78 87 108 161 184 196 201 209 216 219 224 227 227 233 237 241 239 241 245 247 249 250 254 258 260 262 264 263 260 257
42 44 48 61 75 82 89 104 130 147 165 188 200 209 218 216 219 225 227 232 234 235 238 239 245 251 255 259 263 266 266 266 265
34 35 36 43 52 58 68 84 96 106 113 131 144 149 155 165 184 203 218 227 229 237 240 239 241 249 256 260 263 270 276 261 256
16 16 17 22 33 42 49 55 69 90 105 117 130 148 164 180 196 209 218 228 233 231 232 238 243 249 254 258 258 258 252 250 253
351 352 355 358 2 4 13 32 33 37 52 73 101 118 177 220 233 235 238 239 242 244 244 247 249 250 250 254 254 248 246 246 253